Regional Weather Roundup
Issued by NWS Charleston, WV

Home | Current Version | Previous Version | Text Only | Print | Product List | Glossary Off
Versions: 1 2 3 4 5 6 7 8 9 10 11 12 13 14 15 16 17 18 19 20 21 22 23 24 25 26 27 28 29 30 31 32 33 34 35 36 37 38 39 40 41 42 43 44 45 46 47 48 49 50

000
ASUS41 KRLX 242110
RWRRLX
West Virginia Regional Weather Roundup
National Weather Service Charleston WV
400 PM EST SAT JAN 24 2015

Note: "fair" indicates few or no clouds below 12,000 feet with no
significant weather and/or obstructions to visibility.

WVZ003-242200-
Northern Panhandle of West Virginia

CITY           SKY/WX    TMP DP  RH WIND       PRES   REMARKS
WHEELING       CLOUDY    29  23  78 SW12      29.60S
$$

WVZ009-242200-
Northwest West Virginia

CITY           SKY/WX    TMP DP  RH WIND       PRES   REMARKS
PARKERSBURG    CLOUDY    30  26  85 S12       29.69F
$$

WVZ006-242200-
Western West Virginia

CITY           SKY/WX    TMP DP  RH WIND       PRES   REMARKS
HUNTINGTON     CLOUDY    31  28  89 S8        29.71F
$$

WVZ015-242200-
West Central West Virginia

CITY           SKY/WX    TMP DP  RH WIND       PRES   REMARKS
CHARLESTON     PTSUNNY   32  26  78 SW12      29.72F
$$

WVZ022-031-242200-
North Central West Virginia

CITY           SKY/WX    TMP DP  RH WIND       PRES   REMARKS
CLARKSBURG     CLOUDY    30  26  85 SW12      29.65R
MORGANTOWN     CLOUDY    29  23  78 VRB7      29.63R HAZE
$$

WVZ025-035-042-045-242200-
Southern West Virginia

CITY           SKY/WX    TMP DP  RH WIND       PRES   REMARKS
BECKLEY        CLOUDY    30  21  69 W9        29.67R
LOGAN          MOCLDY    32  27  80 VRB6G12   29.71F
BLUEFIELD      PTSUNNY   30  21  69 W13G24    29.68R
LEWISBURG      CLOUDY    32  25  76 NW5       29.65R
$$

WVZ047-242200-
Northern Mountains of West Virginia

CITY           SKY/WX    TMP DP  RH WIND       PRES   REMARKS
ELKINS         CLOUDY    29  24  82 SW10G18   29.62S
$$

WVZ052-242200-
Eastern Panhandle of West Virginia

CITY           SKY/WX    TMP DP  RH WIND       PRES   REMARKS
MARTINSBURG    MOSUNNY   41  24  51 W18G28    29.50R
PETERSBURG     MOSUNNY   38  19  47 SW5       29.58R
$$


USA.gov is the U.S. government's official web portal to all federal, state and local government web resources and services.